Showing default

OPS 9348 (IDSCS 26), 3291

Orbit data source: Space-Track

OPS 9348 (IDSCS 26), 3291 is a payload satellite owned by SAMSO (US) in GEO that was launched on Thu, 13 Jun 1968 UTC via a TITAN IIIC launch vehicle from the Air Force Eastern Test Range (AFETR). Payload-class satellites include a variety of spacecraft equipped with specific instruments for various scientific and technological missions. These include communications satellites like Starlink; space stations such as the ISS; scientific satellites like the Hubble; Earth observation satellites from companies like Planet Labs, Umbra, and HawkEye 360; GPS; miniature CubeSats for education and research; and military/defense satellites.

Not visible in the next 10 days
Identifier
3291, 1968-050H
Orbit
GEO
Last TLE update
9 hours ago
Origin
Manufacturer
Philco-Ford
Mission
Non-operational Defense Communications
Bus & Motor
IDCSP, Unknown motor
Mass
45 kg wet, 45 kg dry
Launch date (UTC)
1968-06-13 (57 years ago)
Launch vehicle
TITAN IIIC
Launch site
Air Force Eastern Test Range (AFETR)
Object type
Payload
Rocket body
Debris
Shape & HBR
Poly, 0.9 m
Radar Cross Section
0.926 m², Medium (>0.1 m² and < 1m²)

Expand to show TLE details & history

TLE from 9 hours ago
0 OPS 9348 (IDSCS 26)
1 03291U 68050H   25182.83259034 -.00000133  00000-0  00000-0 0  9994
2 03291   6.1742  58.0418 0075032 123.1993 119.1349  1.06768084222282
Epoch: 2025-07-01T19:58Z
TLE epoch observation values (Epoch: 2025-07-01T19:58:55.805Z)
Latitude
-5.52458°
Longitude
81.1438°
Altitude
34,208.156 km
Speed
3.128 km/s
True Right ascension
20h 03m 59s
True Declination
-5° 31' 08"
Sunlit
Object was in daylight at epoch
Visualization orbit readout
Latitude
2.0569°
Longitude
-142.55304°
Altitude
34,127.446 km
Speed
3.134 km/s
Apparent Right ascension
05h 03m 35s
Apparent Declination
-3° 18' 39"
Sunlit
Object is in daylight
Visualization observer readout
Local Sidereal Time
16:16:48
Azimuth
340.86° N
Elevation
-51.894°
Doppler factor
1
Orbital elements
Apogee altitude
34,362.931 km
Perigee altitude
33,756.107 km
Semi-major axis
40,437.656 km
Eccentricity
0.0075
Inclination
6.1742°
RAAN
58.0418°
Arg. of periapsis
123.1993°
True anomaly
Unknown
Mean anomaly
119.1349°
Eccentric anomaly
Unknown
Mean motion
0.26691 °/min
Orbital period
1,348.77 mins
BSTAR
0
Loading historical data...
3291 neighbors
Loading maneuver chart data...
Loading SW <> Apogee altitude chart data...
Loading historical data...
Loading historical data...
Loading historical data...
Loading historical data...
Loading historical data...
Loading historical data...
Loading historical data...

OPS 9348 (IDSCS 26) Visibility

Observer location: undefined°, undefined°

OPS 9348 (IDSCS 26) is likely not visible in the next few days
Span
Click to sort rows by Start time (UTC) header in descending order
Start Az.
Max El. time (UTC)
Max El. Az.
Max El.
End time (UTC)
End Az.
|